#timestamp,LO_Frequency,Hit 
1502103615.6,286046922.8,N
1502103635.4,286046919.8,N
1502103655.2,286046920.4,N
1502103675.0,286046918.7,N
1502103675.9,286046918.7,N
1502103695.8,286046919.6,N
1502103715.6,286046920.9,N
1502103735.4,286046920.0,N
1502103755.3,286046922.3,N
1502103775.1,286046922.8,N
1502103795.8,286046918.5,N
1502103815.7,286046919.0,N
1502103835.5,286046918.9,N
1502103855.3,286046919.6,N
1502103875.2,286046919.3,N
1502103895.9,286046918.5,N
1502103915.7,286046921.0,N
1502103935.5,286046918.2,N
1502103955.4,286046918.8,N
1502103975.2,286046918.1,N
1502103995.0,286046919.0,N
1502103995.9,286046919.0,N
1502104015.8,286046917.7,N
1502104035.6,286046916.7,Y
1502104055.4,286046970.6,N
1502104075.3,286046968.0,N
1502104095.1,286046972.2,N
1502104115.8,286046969.7,N
1502104135.7,286046970.6,N
1502104155.5,286046969.9,N
1502104175.3,286046969.8,N
1502104195.2,286046969.4,N
1502104215.9,286046970.5,N
1502104235.7,286046972.3,N
1502104255.6,286046969.6,N
1502104275.4,286046972.2,N
1502104295.2,286046969.5,N
1502104315.1,286046969.6,N
1502104316.0,286046969.6,N
1502104335.8,286046971.5,N
1502104355.6,286046975.2,N
1502104375.4,286046973.9,N
1502104395.3,286046971.3,N
1502104415.1,286046971.5,N
1502104435.8,286046971.7,N
1502104455.7,286046974.0,N
1502104475.5,286046970.5,N
1502104495.3,286046971.8,N
1502104515.2,286046971.3,N
1502104535.9,286046972.1,N
1502104555.7,286046972.0,N
1502104575.6,286046969.3,N
1502104595.4,286046969.8,N
1502104615.2,286046968.1,N
1502104635.1,286046968.6,N
1502104636.0,286046968.6,N
1502104655.8,286046967.7,N
1502104675.6,286046969.5,N
1502104695.4,286046969.4,N
1502104715.3,286046971.5,N
1502104735.1,286046969.7,N
1502104755.8,286046970.3,N
1502104775.7,286046971.9,N
1502104795.5,286046970.6,N
1502104815.3,286046970.2,N
1502104835.2,286046967.7,N
1502104855.9,286046972.2,N
1502104875.7,286046969.9,N
1502104895.6,286046970.7,N
1502104915.4,286046968.1,N
1502104935.2,286046966.2,N
1502104955.1,286046968.3,N
1502104956.0,286046968.3,N
1502104975.8,286046968.3,N
1502104995.6,286046968.8,N
1502105015.4,286046968.8,N
1502105035.3,286046968.6,N
1502105055.1,286046967.6,N
1502105075.8,286046968.7,N
1502105095.7,286046969.4,N
1502105115.5,286046967.8,N
1502105135.3,286046970.3,N
1502105155.2,286046969.2,N
1502105175.9,286046967.8,N
1502105195.7,286046968.4,N
1502105215.6,286046969.2,N
1502105235.4,286046968.6,N
1502105255.2,286046968.2,N
1502105275.1,286046968.3,N
1502105276.0,286046968.3,N
1502105295.8,286046967.3,N
1502105315.6,286046966.2,N
1502105335.4,286046968.1,N
1502105355.3,286046966.7,N
1502105375.1,286046966.5,N
1502105395.8,286046964.7,N
1502105415.7,286046965.8,N
1502105435.5,286046967.3,N
1502105455.3,286046969.1,N
1502105475.2,286046969.1,N
1502105495.9,286046970.3,N
1502105515.7,286046970.3,N
1502105535.6,286046966.8,N
1502105555.4,286046968.4,N
1502105575.2,286046964.6,N
1502105595.0,286046966.6,N
1502105596.0,286046966.6,N
1502105615.8,286046968.5,N
1502105635.6,286046967.8,N
1502105655.4,286046972.3,N
1502105675.3,286046969.4,N
1502105695.1,286046970.7,N
1502105715.8,286046970.8,N
1502105735.7,286046970.7,N
1502105755.5,286046969.9,N
1502105775.3,286046968.0,N
1502105795.2,286046970.8,N
1502105815.9,286046970.5,N
1502105835.7,286046970.1,N
1502105855.6,286046968.1,N
1502105875.4,286046968.1,N
1502105895.2,286046968.2,N
1502105915.1,286046967.8,N
1502105916.0,286046967.8,N
1502105935.8,286046969.2,N
1502105955.6,286046969.3,N
1502105975.4,286046970.2,N
1502105995.3,286046967.9,N
1502106015.1,286046968.3,N
1502106035.8,286046970.7,N
1502106055.7,286046968.3,N
1502106075.5,286046970.8,N
1502106095.3,286046969.2,N
1502106115.2,286046970.3,N
1502106135.9,286046971.8,N
1502106155.7,286046969.6,N
1502106175.6,286046972.0,N
1502106195.4,286046972.3,N
1502106215.2,286046972.1,N
1502106235.1,286046971.3,N
1502106236.0,286046971.3,N
1502106255.8,286046971.9,N
1502106275.6,286046972.2,N
1502106295.4,286046969.6,N
1502106315.3,286046970.6,N
1502106335.1,286046972.2,N
1502106355.8,286046969.9,N
1502106375.7,286046969.4,N
1502106395.5,286046969.5,N
1502106415.3,286046967.9,N
1502106435.2,286046970.0,N
1502106455.9,286046969.9,N
1502106475.7,286046970.6,N
1502106495.6,286046969.4,N
1502106515.4,286046970.4,N
1502106535.2,286046969.4,N
1502106555.1,286046968.6,N
1502106556.0,286046968.6,N
1502106575.8,286046966.5,N
1502106595.6,286046967.8,N
1502106615.4,286046968.3,N
1502106635.3,286046966.1,N
1502106655.1,286046966.1,N
1502106675.8,286046968.0,N
1502106695.7,286046969.1,N
1502106715.5,286046969.0,N
1502106735.3,286046969.1,N
1502106755.2,286046967.0,N
1502106775.9,286046967.6,N
1502106795.7,286046967.4,N
1502106815.6,286046966.5,N
1502106835.4,286046967.4,N
1502106855.2,286046964.5,N
1502106875.0,286046967.2,N
1502106875.9,286046967.2,N
1502106895.8,286046968.1,N
1502106915.6,286046966.7,N
1502106935.4,286046965.4,N
1502106955.3,286046967.1,N
1502106975.1,286046970.5,N
1502106995.8,286046968.2,N
1502107015.7,286046969.1,N
1502107035.5,286046967.2,N
1502107055.3,286046966.7,N
1502107075.2,286046965.3,N
1502107095.9,286046965.1,N
1502107115.7,286046965.0,N
1502107135.5,286046964.6,N
1502107155.4,286046965.9,N
1502107175.2,286046963.3,N
1502107195.0,286046965.0,N
1502107195.9,286046965.0,N
